Dewpoint
66 66 66 65 65 65 65 64 64 64 63 63 63 63 64 64 64 64 64 63 63 64 64 64 64 64 64 64 64 64 64 64 64 64 64 64 64 64 64 64 64 64 64 64 65 65 66 65 64 64 63 63 63 62 62 62 62 62 62 61 61 61 61 62 64 65 65 65 65 64 64 64 64 64 64 63 63 63 63 63 63 63 64 64 65 65 65 65 65 64 64 64 64 64 64 64 64 63 63 63 62 62 63
66 67 67 66 66 65 65 64 64 64 64 64 64 64 64 64 64 64 64 64 64 64 64 64 64 64 64 64 64 64 65 65 65 65 64 64 64 64 64 64 64 64 65 65 66 66 65 64 64 63 63 63 63 62 62 62 62 62 62 62 62 62 61 64 65 66 66 65 65 65 65 65 65 64 64 64 64 64 63 63 63 63 63 64 64 65 66 66 65 65 65 64 64 64 64 64 64 64 64 63 63 63 63
66 67 67 66 66 65 65 64 64 64 64 64 64 64 64 64 64 64 64 64 64 64 64 64 64 64 64 65 65 65 65 65 65 65 65 64 64 64 64 64 65 65 65 66 66 66 66 65 64 63 63 63 63 63 63 63 63 62 62 62 62 62 62 64 65 66 66 66 66 66 66 66 65 65 65 64 64 64 64 64 64 64 64 64 64 65 66 66 67 66 66 65 64 64 64 64 64 64 64 64 64 63 63
67 67 67 66 66 65 65 64 64 64 64 64 64 65 65 65 65 65 64 64 64 64 65 65 65 65 65 65 65 65 65 65 65 65 65 65 64 64 65 65 65 66 66 67 67 67 65 65 64 64 64 64 64 63 63 64 64 63 63 63 63 63 64 65 66 66 67 67 67 66 66 66 66 66 65 65 65 65 65 65 64 64 64 64 64 64 65 67 68 68 68 67 66 65 64 64 64 64 64 64 64 64 64
67 67 67 66 66 65 65 65 64 65 65 65 65 65 65 65 65 65 64 64 64 64 65 65 65 65 65 65 65 65 65 65 65 65 65 65 65 65 65 65 66 66 67 67 68 67 65 65 65 65 64 64 64 64 64 64 64 64 64 64 63 64 65 65 66 67 67 67 67 67 67 67 66 66 66 66 65 65 65 65 65 65 64 64 64 64 65 66 67 68 68 68 68 67 66 65 64 64 64 64 64 64 64
67 66 66 66 66 66 65 65 65 65 65 66 66 65 65 65 65 65 64 64 64 65 65 65 65 65 65 65 65 65 65 66 66 66 65 65 65 65 65 66 66 66 67 68 68 68 66 65 65 64 64 64 64 64 64 64 64 64 64 64 64 64 65 66 66 67 67 67 67 67 67 67 67 67 67 66 66 66 66 65 65 65 65 64 64 64 64 65 66 67 68 68 68 68 67 66 65 65 64 64 64 64 64
66 66 66 66 66 66 66 66 66 66 66 66 66 65 65 65 65 65 65 65 65 65 65 65 65 66 66 66 66 66 67 67 67 67 67 66 66 66 66 66 67 67 67 68 68 68 67 66 65 65 64 64 64 64 64 64 64 64 64 63 64 64 65 66 66 67 67 67 67 67 67 67 67 68 68 68 67 67 66 66 65 65 65 65 64 64 64 64 65 66 67 67 68 68 67 67 66 65 65 65 65 65 64
67 66 66 66 66 66 67 67 67 66 66 66 66 65 65 65 65 65 65 65 65 65 66 66 67 67 67 67 67 67 68 68 68 68 68 67 67 67 67 67 67 67 68 68 68 68 67 66 65 65 65 64 64 64 64 64 64 63 63 63 63 64 65 66 66 67 67 67 67 68 68 68 68 68 68 68 68 67 67 66 66 66 65 65 65 64 64 64 64 65 65 66 67 67 67 67 67 66 66 66 65 65 65
67 66 66 66 67 67 67 67 67 67 66 66 66 65 65 65 65 65 65 65 66 66 67 68 68 68 68 68 68 68 68 68 68 68 68 68 67 67 67 67 67 67 67 67 67 67 67 66 65 64 64 64 64 63 63 63 63 63 63 63 63 64 65 66 66 67 67 67 67 68 68 68 68 68 68 68 68 68 67 67 66 66 66 65 65 65 64 64 64 65 65 66 66 67 67 67 67 67 66 66 66 66 66
66 66 66 67 67 67 67 67 67 67 66 66 66 66 65 65 65 65 65 66 66 67 68 68 68 68 68 68 68 68 68 68 68 68 67 67 67 67 67 67 67 67 66 66 66 66 65 64 64 64 64 63 63 62 63 62 62 62 62 63 64 64 65 66 67 67 67 67 67 67 68 67 67 67 67 67 67 67 67 66 66 66 66 65 65 65 65 65 65 65 65 66 66 67 67 67 67 67 67 67 66 66 66
66 66 67 67 67 68 68 68 67 67 66 66 66 66 65 65 65 66 66 67 67 67 68 68 68 68 68 68 68 68 67 67 67 67 67 67 67 67 66 66 66 65 65 65 64 64 64 63 63 62 62 62 62 61 62 62 62 62 62 63 64 65 65 66 67 67 67 67 67 67 67 67 66 66 66 66 66 66 66 66 66 66 66 66 66 66 66 65 65 65 65 66 67 67 68 68 68 68 68 68 67 67 66
66 67 67 67 67 67 68 68 67 67 67 66 66 66 65 65 66 66 67 67 68 68 68 68 68 68 68 68 67 67 67 67 67 67 66 66 66 66 65 65 65 64 64 64 64 63 63 62 61 61 61 61 61 61 61 61 61 61 61 63 64 65 65 66 66 67 66 66 66 66 66 66 66 66 66 66 66 66 66 67 67 67 67 67 67 67 67 67 67 67 67 67 68 68 68 68 68 68 68 68 68 67 67
67 67 66 66 66 67 67 67 67 67 67 67 66 66 66 66 66 66 67 67 67 68 67 67 67 67 67 67 67 66 66 66 66 65 65 65 65 65 64 64 64 63 63 63 62 62 61 60 60 60 60 60 60 60 60 60 61 61 61 63 64 65 65 66 66 66 66 66 66 66 66 66 66 66 66 66 67 67 67 67 68 68 68 68 68 68 68 68 68 68 68 68 68 68 68 68 68 68 68 68 68 68 68
66 66 66 66 66 66 66 66 67 67 67 67 66 66 66 66 66 67 67 67 67 67 67 67 67 66 66 65 65 65 65 65 64 64 64 64 64 63 63 63 63 62 62 61 60 60 59 59 59 59 59 59 59 59 60 59 60 61 62 63 64 64 65 65 65 66 66 65 65 65 65 66 66 66 67 67 68 68 67 67 67 68 68 69 68 68 68 68 68 68 68 68 68 68 68 68 68 68 68 68 68 68 68
65 65 66 65 65 65 65 66 66 66 66 66 66 67 67 67 67 67 67 67 67 67 67 66 66 65 64 64 64 64 64 63 63 62 62 62 62 62 62 61 61 61 60 59 59 58 58 58 58 58 58 58 58 59 59 59 59 61 62 63 64 64 64 65 65 65 65 65 65 65 65 65 66 67 67 68 68 68 67 67 67 68 68 68 68 68 68 68 68 68 68 68 68 68 68 68 68 68 68 68 68 68 68
63 63 64 64 65 65 65 65 65 66 66 66 66 67 67 67 67 67 67 67 67 66 66 65 64 64 63 63 62 62 62 62 61 60 59 59 59 60 60 59 59 59 58 57 56 56 56 56 56 56 56 56 57 57 58 58 59 60 62 63 63 64 64 64 64 64 64 64 64 65 65 65 66 66 67 68 68 67 66 66 66 67 67 68 68 68 68 68 68 68 68 68 68 68 68 68 69 69 69 68 68 68 68
62 62 63 64 64 64 65 65 66 66 66 67 67 67 67 67 67 67 67 66 66 65 64 63 63 62 61 60 60 59 59 59 58 57 56 57 57 57 58 57 57 56 55 55 54 54 54 54 54 54 54 55 55 55 56 57 59 60 61 62 62 63 63 63 64 64 64 64 64 64 64 65 65 66 66 66 66 65 65 65 65 65 66 66 67 68 68 68 68 68 68 69 69 68 68 68 68 68 68 68 68 68 68
62 62 63 64 64 64 65 66 66 66 67 67 67 67 67 67 67 66 66 65 64 63 62 61 60 59 58 57 56 55 54 54 53 52 52 53 54 55 55 55 54 53 52 52 52 52 52 52 51 51 51 51 52 53 54 56 58 59 60 60 61 61 62 62 63 63 64 64 64 64 64 64 64 64 64 64 64 64 64 64 64 64 64 64 65 66 66 67 67 68 68 68 68 68 68 68 68 68 68 68 68 68 68
62 62 63 64 64 65 65 66 66 66 67 67 67 67 67 66 66 65 64 63 62 60 59 58 57 56 55 54 52 50 49 48 47 47 46 48 50 51 51 50 50 50 49 49 49 49 49 49 48 48 48 48 49 50 52 55 56 58 58 59 59 60 60 61 62 62 63 63 62 62 62 62 62 62 62 62 62 62 62 62 62 62 63 63 64 64 64 65 66 66 67 68 68 68 68 68 68 68 68 67 67 67 67
62 62 63 64 64 65 65 65 65 66 66 66 66 66 66 65 64 63 61 60 59 57 56 55 53 52 51 50 47 45 44 44 43 43 43 44 45 46 46 46 46 46 46 46 46 46 45 45 45 45 45 45 46 47 50 53 55 56 56 57 58 59 59 60 60 61 61 61 61 61 60 60 60 60 60 60 59 60 60 60 60 61 61 62 62 63 63 64 65 65 66 66 67 67 67 67 67 67 67 67 67 67 67
61 62 63 63 64 64 64 64 64 64 65 65 65 65 65 64 62 60 58 56 55 54 53 51 49 46 46 44 42 41 41 41 40 40 40 40 40 40 41 41 41 42 42 43 43 42 41 41 41 41 41 42 42 44 46 50 53 55 55 56 57 58 59 59 59 59 59 59 59 59 59 59 59 58 58 58 58 59 59 59 59 60 60 61 61 62 63 64 65 66 66 67 67 67 67 67 67 67 67 67 67 67 67
61 61 62 63 63 63 63 64 64 64 64 64 64 64 63 62 59 56 53 51 50 49 49 46 44 42 41 40 39 38 38 38 37 37 37 36 36 36 37 37 38 38 39 40 39 39 39 39 39 39 38 39 39 41 43 49 52 54 55 56 57 58 59 59 59 58 58 58 58 58 58 57 57 57 57 57 58 58 59 59 59 59 60 60 61 62 64 65 66 66 67 67 67 67 67 67 67 67 67 67 67 67 67
62 62 63 63 63 63 64 64 64 64 64 64 64 63 61 58 55 52 50 47 46 44 44 42 41 39 38 37 36 36 36 36 36 35 34 34 34 33 33 34 35 35 36 36 37 37 37 37 37 37 37 36 37 38 40 48 51 53 55 56 57 58 59 59 58 58 57 57 57 57 57 56 56 56 56 57 57 58 59 59 60 60 60 61 62 63 64 65 65 66 66 66 66 66 67 67 67 66 66 66 66 66 67
63 63 63 63 63 64 64 64 64 63 62 62 62 60 57 54 51 48 46 45 43 41 40 38 37 37 37 35 34 34 33 34 34 34 32 32 32 32 31 32 32 32 33 34 34 35 35 35 35 35 35 34 35 36 38 46 50 53 54 55 57 58 58 58 58 57 57 57 57 57 56 56 56 56 56 56 58 59 59 59 60 60 61 62 63 64 64 64 64 65 65 65 65 65 65 65 66 66 65 65 65 66 66
63 63 62 62 62 62 62 62 62 61 60 59 58 56 52 50 47 46 43 42 40 39 37 36 35 35 34 33 33 32 32 32 32 32 32 31 30 30 30 30 30 31 32 32 33 33 34 34 34 34 33 33 33 35 37 46 50 52 53 55 55 56 57 57 57 57 57 57 57 57 56 56 55 55 55 56 57 58 59 59 59 60 60 61 61 62 62 63 63 63 63 63 63 63 63 64 64 64 64 64 64 64 65
62 61 60 59 59 59 59 60 60 59 59 58 55 51 47 46 44 43 41 39 38 37 36 36 36 35 34 32 32 32 32 32 31 31 31 31 30 29 29 29 30 30 31 32 32 32 32 32 32 32 32 31 32 34 36 45 49 51 52 54 55 55 55 56 56 57 57 57 57 57 56 56 55 55 55 56 57 57 58 58 58 59 59 59 59 59 60 60 61 61 61 61 60 60 60 60 60 61 61 61 61 62 63
59 58 56 55 55 55 56 57 57 56 54 52 50 47 44 42 41 40 39 37 37 37 36 36 36 35 35 34 33 32 33 32 32 31 31 31 30 29 28 28 29 30 30 31 31 32 31 31 31 30 30 30 31 32 35 43 48 50 51 53 53 53 54 54 55 55 56 57 57 57 56 56 55 55 55 55 56 56 56 56 57 57 57 57 57 57 57 58 58 59 59 59 58 58 58 58 57 57 58 58 59 59 60
55 53 52 51 52 53 53 53 52 51 49 47 45 43 42 40 39 38 37 36 36 36 35 36 36 36 36 35 34 34 34 33 32 32 32 31 31 31 29 28 28 29 29 30 30 30 30 30 30 29 29 29 30 32 34 41 46 49 50 51 51 52 52 52 53 54 55 55 56 56 56 56 55 55 55 55 55 55 55 55 55 55 56 56 56 56 56 56 56 56 57 57 56 56 56 56 56 56 56 56 57 57 57
51 50 49 49 49 50 49 48 47 45 43 42 41 40 40 39 37 36 36 35 35 35 33 34 34 35 35 34 33 33 34 33 32 32 32 31 32 32 31 28 28 28 29 29 29 29 30 30 29 28 28 28 29 30 32 37 42 47 49 50 50 50 50 50 51 51 52 54 54 55 55 55 55 54 54 54 54 54 54 54 54 55 55 55 55 55 55 55 55 55 55 55 55 55 55 55 56 56 56 56 55 55 55
49 47 46 46 46 46 45 44 42 41 41 39 38 37 38 37 36 35 35 34 34 34 34 35 36 36 36 35 33 32 33 32 32 32 33 32 32 31 31 29 28 28 28 29 29 29 29 29 29 28 27 27 27 28 30 32 38 45 48 49 49 49 49 49 49 50 50 51 52 53 54 54 54 53 53 53 53 53 53 53 53 53 53 53 53 54 54 54 54 54 54 54 54 54 55 55 55 55 55 55 55 55 55
47 46 45 44 43 41 41 40 39 38 39 38 37 36 36 37 36 35 34 34 34 34 35 35 35 35 35 34 33 33 34 33 33 32 33 32 31 30 30 29 28 28 28 29 30 30 30 29 28 28 27 27 27 27 28 30 34 41 46 47 47 48 47 47 47 48 48 49 50 51 51 52 52 52 51 51 51 51 51 51 51 52 52 52 52 52 52 53 53 53 53 53 53 53 53 53 54 54 54 54 54 54 54
46 45 44 42 40 39 38 37 37 37 37 36 36 35 36 37 36 36 36 35 34 33 33 32 32 32 32 32 32 32 34 33 32 31 33 32 31 30 29 28 28 28 29 29 30 30 31 30 28 28 27 27 26 26 27 28 31 36 41 45 46 46 46 46 46 46 47 48 48 49 50 50 50 50 50 50 50 50 50 50 50 50 50 51 51 51 51 51 52 52 52 52 52 52 52 52 53 53 53 53 53 53 53
45 44 42 41 39 37 37 35 35 35 36 35 35 34 35 36 36 36 36 36 36 37 36 35 34 34 34 32 32 32 32 34 32 31 32 31 31 30 30 28 28 28 30 29 29 30 31 29 28 27 27 26 26 25 25 26 28 31 35 41 43 45 45 45 45 45 46 46 47 47 48 48 48 49 49 48 48 48 48 48 49 49 49 50 50 50 50 50 51 51 51 51 51 51 51 51 52 52 52 52 52 52 52
43 42 41 39 37 35 35 34 34 34 34 34 34 34 35 36 36 37 37 36 36 37 36 36 36 35 35 33 33 33 31 33 32 31 29 30 30 30 30 28 28 29 29 28 28 29 30 29 28 27 27 26 25 25 24 24 26 29 32 36 39 42 43 44 44 44 44 45 45 46 46 46 47 47 47 47 47 47 47 47 47 48 48 48 49 49 49 50 50 50 50 50 50 50 50 51 51 51 51 51 51 51 51
42 40 38 37 35 34 35 34 34 33 33 33 34 35 35 35 35 36 36 35 35 35 34 35 35 35 35 33 33 34 33 33 33 31 28 28 29 30 29 28 28 29 28 28 28 29 30 29 28 27 27 25 24 23 23 24 26 28 30 33 36 38 41 41 41 42 43 43 44 44 45 45 45 46 46 46 46 46 46 46 46 47 47 47 48 48 48 49 49 49 49 50 50 50 50 50 50 50 50 50 50 50 50
40 38 36 35 34 33 34 33 33 33 33 33 33 34 35 34 33 32 32 32 32 33 33 35 35 34 34 33 33 33 33 32 31 29 28 27 28 30 30 28 29 30 28 28 29 30 30 28 28 27 27 25 24 23 23 25 26 27 28 30 32 34 37 38 38 39 41 42 42 43 43 43 44 44 44 45 45 45 45 45 46 46 46 46 47 47 48 48 48 48 48 49 49 49 49 49 49 50 50 50 50 50 50
38 36 34 34 33 32 32 32 33 33 34 33 32 32 32 31 30 30 30 31 32 32 32 33 33 33 31 29 29 30 30 29 27 25 25 26 27 27 28 28 29 29 28 28 30 30 30 28 28 28 28 26 25 23 23 25 25 25 26 28 29 30 32 32 34 35 38 40 41 41 41 41 42 42 43 43 43 44 44 44 45 45 46 46 46 47 47 47 47 47 47 48 48 48 48 48 49 49 49 49 49 49 49
36 34 33 34 34 33 32 32 32 33 32 32 31 30 30 29 29 30 29 30 31 31 30 29 30 31 30 28 27 28 32 29 27 26 25 25 25 24 24 27 28 28 28 29 30 30 29 28 28 28 28 27 25 23 24 25 24 24 24 25 26 27 28 30 30 32 35 36 38 39 40 40 41 41 41 42 42 42 43 43 44 44 45 45 46 46 46 46 46 46 46 47 47 47 47 47 48 48 48 48 49 49 48
36 34 32 33 34 33 32 32 32 32 31 30 29 29 30 28 28 29 29 29 30 30 30 28 28 28 28 28 28 28 30 29 27 25 26 26 25 24 24 25 26 26 27 29 31 30 28 28 28 28 29 27 25 24 25 23 23 23 23 24 25 26 27 28 29 30 31 31 33 36 38 39 39 39 40 40 40 41 41 41 42 43 44 44 45 46 46 46 46 46 46 46 46 46 46 47 47 47 48 48 48 48 48
35 33 32 32 32 32 31 32 31 30 29 28 28 29 31 29 27 27 27 28 29 30 31 29 26 24 25 26 26 27 28 28 27 26 26 26 25 24 24 24 24 25 26 28 28 28 28 28 28 28 29 28 27 25 23 23 23 23 23 23 24 25 27 27 26 26 26 27 29 32 36 37 37 38 38 38 39 39 39 40 41 41 42 43 44 45 45 45 45 45 46 46 46 46 46 46 46 47 47 47 47 47 47
34 32 31 31 30 30 31 31 30 28 27 27 27 28 30 28 27 26 25 27 28 29 32 32 27 23 23 25 25 24 25 26 27 27 26 26 26 25 25 24 23 24 25 27 28 28 28 28 28 28 29 29 28 25 23 23 24 25 25 24 25 26 28 26 25 24 24 24 27 30 32 35 36 37 37 37 37 37 37 38 38 40 41 41 42 43 44 44 45 45 45 45 45 45 46 46 46 46 46 46 46 46 46
33 32 30 30 29 30 31 30 29 28 26 25 25 26 27 26 26 26 25 27 27 27 29 31 29 26 23 23 23 23 24 24 26 27 27 26 26 25 25 24 23 23 24 26 26 27 28 28 30 31 32 29 27 24 23 25 26 27 27 26 26 28 28 27 26 25 25 24 24 26 30 33 34 35 35 35 35 35 36 36 37 38 39 40 41 42 43 43 44 44 44 44 45 45 45 46 46 46 45 45 45 45 46
32 30 29 28 28 29 30 30 29 28 25 24 24 24 24 25 26 26 26 28 27 25 25 28 29 28 26 23 22 23 23 23 24 25 26 25 25 25 24 24 23 23 24 25 25 26 27 28 31 32 33 28 23 22 23 25 27 27 27 26 27 28 28 28 28 28 27 26 25 25 28 31 32 34 34 34 34 34 34 34 35 37 38 39 40 41 42 42 43 43 43 44 44 44 45 45 45 45 45 45 45 45 45
30 29 28 28 28 28 29 28 28 27 25 23 23 23 23 24 25 26 27 27 25 23 22 26 27 27 25 23 21 22 21 22 23 24 25 24 23 23 24 23 23 23 23 23 24 26 27 28 31 32 29 24 22 21 23 25 26 26 26 26 27 28 28 28 28 28 28 28 27 26 27 28 30 31 32 32 33 33 33 33 34 35 36 37 39 40 41 41 41 42 42 43 43 44 44 44 44 44 44 44 44 44 44
29 28 28 28 28 28 28 28 28 27 26 24 23 23 23 23 24 25 26 27 25 23 20 23 26 27 25 23 22 21 21 22 23 23 24 23 23 23 24 23 22 22 23 23 23 25 27 30 31 29 24 23 22 21 21 23 25 26 26 26 26 27 28 28 28 28 28 27 26 26 28 28 27 27 30 30 30 31 32 32 32 33 35 36 37 38 39 39 40 41 41 42 42 43 44 44 44 44 44 44 44 44 44
28 27 27 27 27 27 28 28 28 28 26 24 23 22 21 22 22 23 23 26 26 24 21 21 23 25 26 25 23 21 21 22 23 23 23 23 23 23 23 22 21 21 22 22 23 24 27 30 29 26 23 22 21 21 20 22 24 25 24 24 25 26 27 27 27 27 26 26 26 26 28 28 25 23 23 23 23 25 28 30 31 32 33 34 36 37 37 38 38 39 40 41 41 42 43 43 43 43 43 43 43 43 43
27 26 26 26 26 27 27 27 27 27 26 24 22 21 21 21 21 21 22 23 25 26 24 22 21 21 23 23 22 21 21 22 23 23 23 22 21 21 21 20 20 20 21 21 22 24 28 28 26 23 22 21 20 19 19 20 22 22 21 23 24 25 25 26 25 25 24 23 24 25 25 24 23 20 18 18 18 19 23 27 29 30 32 33 34 35 36 36 37 37 39 40 41 41 42 43 43 43 43 43 43 43 43
27 26 26 26 26 26 26 27 27 27 26 24 22 21 21 21 22 22 23 23 25 26 27 24 21 19 18 19 19 21 21 22 22 23 22 19 17 18 19 20 20 20 20 21 22 24 29 25 22 21 20 19 18 18 18 19 19 20 20 22 22 23 23 23 23 22 22 22 23 23 22 21 20 19 17 17 16 17 19 22 24 27 30 31 32 33 34 35 35 36 37 39 40 41 41 42 42 42 42 42 43 42 43
27 27 25 25 25 25 25 26 26 26 26 24 23 23 23 23 23 23 24 24 25 26 27 26 23 20 17 17 18 20 21 21 22 23 22 16 14 14 16 19 20 20 20 21 23 25 27 22 19 19 19 18 17 16 16 18 18 19 20 21 21 20 21 20 20 20 20 21 21 22 21 20 19 18 17 16 16 17 18 18 19 22 28 30 31 32 32 33 34 35 36 37 39 40 41 41 41 42 42 42 42 42 42
26 25 25 25 25 24 24 25 26 26 26 25 25 24 25 24 24 23 23 23 23 25 26 25 24 22 18 17 18 19 21 21 22 22 20 15 13 13 12 15 18 19 18 19 22 23 20 19 19 19 19 18 17 16 17 17 18 19 20 20 19 19 19 19 19 19 20 20 20 20 20 20 19 18 16 16 17 17 18 18 19 20 24 27 28 28 30 32 32 33 35 36 37 38 39 40 41 41 41 41 41 42 42
26 25 24 24 24 24 24 24 25 26 26 26 25 24 23 23 23 22 20 20 21 23 24 23 23 23 22 19 19 20 22 22 22 20 15 14 15 17 16 17 16 15 12 14 19 22 21 19 19 20 19 17 16 16 17 17 18 19 20 20 19 18 18 18 18 18 19 19 19 19 19 19 19 18 17 18 17 17 18 18 18 19 20 19 20 22 25 28 30 32 34 35 36 37 37 38 39 40 41 41 41 42 42
26 26 25 24 25 25 26 25 25 24 24 23 22 21 21 20 20 21 21 21 21 22 23 21 20 21 23 21 20 20 23 23 22 21 17 15 18 22 24 21 15 10 10 11 15 19 20 18 18 19 17 17 16 16 17 17 18 19 21 21 20 19 18 18 17 17 17 17 18 18 18 19 19 19 19 19 18 18 18 18 18 18 18 18 19 21 23 25 28 31 33 34 35 36 36 37 37 39 40 41 41 41 42
26 25 25 24 25 25 26 25 24 23 22 21 20 20 21 20 20 20 20 21 22 23 23 23 22 19 19 19 19 19 22 22 22 23 21 19 18 19 22 19 14 11 13 11 10 11 14 14 13 13 14 14 16 17 17 17 18 19 22 22 21 19 17 17 17 16 14 15 15 16 17 18 19 20 19 18 18 18 18 18 18 18 18 19 19 21 22 24 28 31 32 33 34 34 35 35 36 37 39 40 41 41 42
26 25 24 24 24 24 24 23 23 23 23 23 21 20 19 19 19 19 19 19 20 21 22 23 22 20 17 17 17 18 19 21 22 23 23 23 19 15 14 16 18 19 19 14 9 6 8 10 10 11 12 15 17 17 18 18 18 19 21 22 21 19 17 17 16 15 14 14 14 15 16 17 18 19 20 19 18 17 18 18 18 18 18 19 19 19 21 23 27 30 30 31 31 32 33 34 35 37 38 39 40 41 41
25 24 24 23 23 23 23 23 23 23 23 23 22 21 19 19 19 19 19 20 20 21 20 21 21 20 17 17 17 17 17 19 21 22 22 23 22 18 15 17 18 18 16 13 10 8 7 9 10 10 10 16 17 16 16 18 18 19 21 21 19 17 16 15 15 14 13 13 13 14 15 16 18 19 19 19 18 17 18 18 18 18 18 19 19 20 22 25 27 27 26 27 29 31 32 34 35 36 37 38 39 40 41
24 23 23 23 23 23 23 23 23 23 23 23 22 21 20 20 20 21 21 22 22 22 21 20 21 21 20 18 17 17 17 18 20 22 22 22 23 23 21 18 13 9 6 7 9 10 10 13 11 9 8 15 15 13 13 16 18 19 20 19 17 15 16 15 14 13 12 12 12 13 14 15 17 17 18 18 17 17 17 17 17 18 19 19 20 20 21 23 23 23 23 24 27 29 31 33 34 36 37 38 39 39 40
24 23 22 23 23 23 23 23 23 22 23 23 22 21 21 21 21 21 22 22 23 22 22 22 22 23 23 21 19 17 16 16 18 21 23 22 22 23 22 20 18 15 12 10 10 11 12 14 11 7 6 13 14 13 14 18 19 19 19 17 16 16 16 14 13 13 13 13 12 12 13 15 15 16 18 18 17 16 17 17 17 18 18 19 19 19 19 20 21 22 22 23 24 27 31 33 34 36 37 38 39 39 39
24 24 23 23 23 23 23 23 23 23 23 23 23 22 21 21 20 20 21 22 23 23 23 23 23 23 24 23 21 19 16 16 17 19 22 23 22 21 22 23 24 23 21 20 19 17 15 14 11 9 6 7 12 18 21 18 16 15 16 16 15 15 15 14 14 14 13 13 13 13 13 14 16 17 17 17 16 16 17 17 18 18 18 19 19 19 19 20 21 22 22 24 26 28 32 33 35 36 37 38 38 39 39
24 24 24 24 24 23 23 23 23 23 23 23 22 22 21 20 20 21 22 23 24 24 23 23 24 24 25 23 22 20 17 17 18 19 20 21 20 21 23 23 23 24 26 26 25 23 19 15 12 10 10 7 8 12 18 13 11 10 12 14 14 14 14 14 14 14 14 14 14 14 13 14 15 15 15 15 15 15 16 17 18 18 19 19 19 18 19 22 23 24 26 28 30 31 32 33 34 36 37 37 38 38 38
25 25 24 24 24 24 24 23 23 23 23 23 22 21 20 20 21 22 23 24 25 25 23 23 24 25 25 23 22 20 18 18 19 21 21 18 18 19 23 23 22 22 23 25 25 24 23 19 17 15 14 11 8 6 7 10 11 11 11 12 13 13 13 14 14 14 14 14 14 14 13 12 13 14 14 14 14 14 15 17 18 18 19 19 18 18 19 19 21 23 25 28 29 31 32 33 34 36 37 37 37 38 38
25 25 25 24 24 24 23 23 23 23 23 23 22 21 21 21 21 21 21 21 22 23 23 23 23 24 25 25 24 23 21 19 20 21 22 18 17 18 22 21 21 21 22 22 23 23 23 22 21 20 19 15 12 8 5 6 8 10 11 12 12 12 13 13 13 13 13 13 13 13 13 12 12 12 13 14 15 15 15 16 17 18 18 18 17 17 18 18 19 20 22 24 28 30 32 33 34 36 37 37 37 38 38